TimeCDT,TemperatureF,Dew PointF,Humidity,Sea Level PressureIn,VisibilityMPH,Wind Direction,Wind SpeedMPH,Gust SpeedMPH,PrecipitationIn,Events,Conditions,WindDirDegrees,DateUTC
12:09 AM,66.9,64.9,93,30.11,1.5,Calm,Calm,-,N/A,,Partly Cloudy,0,2013-09-05 05:09:00
12:11 AM,66.9,64.9,93,30.11,0.8,Calm,Calm,-,N/A,,Mist,0,2013-09-05 05:11:00
12:41 AM,66.0,64.9,96,30.12,1.0,NE,4.6,-,N/A,,Mostly Cloudy,40,2013-09-05 05:41:00
12:45 AM,66.9,64.9,93,30.12,2.0,NE,4.6,-,N/A,,Mostly Cloudy,50,2013-09-05 05:45:00
12:53 AM,68.0,66.9,96,30.12,5.0,East,3.5,-,N/A,,Scattered Clouds,90,2013-09-05 05:53:00
1:53 AM,66.9,64.9,93,30.12,2.0,Calm,Calm,-,N/A,,Partly Cloudy,0,2013-09-05 06:53:00
2:00 AM,66.0,64.9,96,30.13,1.0,Calm,Calm,-,N/A,,Partly Cloudy,0,2013-09-05 07:00:00
2:03 AM,66.0,64.9,96,30.13,0.8,Calm,Calm,-,N/A,,Mist,0,2013-09-05 07:03:00
2:15 AM,66.0,64.9,96,30.14,0.2,Calm,Calm,-,N/A,Fog,Fog,0,2013-09-05 07:15:00
2:32 AM,66.9,64.9,93,30.14,1.2,NNE,3.5,-,N/A,,Scattered Clouds,20,2013-09-05 07:32:00
2:53 AM,66.0,64.9,96,30.13,1.5,Calm,Calm,-,N/A,,Scattered Clouds,0,2013-09-05 07:53:00
3:05 AM,66.9,64.9,93,30.14,2.5,Calm,Calm,-,N/A,,Partly Cloudy,0,2013-09-05 08:05:00
3:23 AM,66.0,64.9,96,30.15,1.2,Calm,Calm,-,N/A,,Clear,0,2013-09-05 08:23:00
3:33 AM,66.9,64.9,93,30.15,3.0,NNE,3.5,-,N/A,,Clear,30,2013-09-05 08:33:00
3:53 AM,66.9,64.9,93,30.15,5.0,NE,3.5,-,N/A,,Clear,40,2013-09-05 08:53:00
4:46 AM,66.9,64.0,90,30.17,9.0,NE,4.6,-,N/A,,Partly Cloudy,50,2013-09-05 09:46:00
4:53 AM,66.9,64.0,90,30.16,9.0,NE,4.6,-,N/A,,Mostly Cloudy,50,2013-09-05 09:53:00
5:53 AM,66.9,64.0,90,30.18,9.0,ENE,4.6,-,N/A,,Overcast,60,2013-09-05 10:53:00
6:53 AM,66.9,63.0,87,30.21,6.0,ENE,5.8,-,N/A,,Overcast,70,2013-09-05 11:53:00
7:53 AM,69.1,63.0,81,30.22,9.0,Variable,3.5,-,N/A,,Mostly Cloudy,0,2013-09-05 12:53:00
8:03 AM,69.1,63.0,81,30.22,10.0,Variable,4.6,-,N/A,,Mostly Cloudy,0,2013-09-05 13:03:00
8:40 AM,70.0,63.0,78,30.22,10.0,Variable,3.5,-,N/A,,Overcast,0,2013-09-05 13:40:00
8:53 AM,70.0,62.1,76,30.22,10.0,East,8.1,-,N/A,,Overcast,90,2013-09-05 13:53:00
9:53 AM,71.1,62.1,73,30.24,10.0,NE,5.8,-,N/A,,Overcast,50,2013-09-05 14:53:00
10:53 AM,72.0,62.1,71,30.24,10.0,ENE,6.9,-,N/A,,Overcast,60,2013-09-05 15:53:00
11:53 AM,75.9,61.0,60,30.25,10.0,ENE,5.8,-,N/A,,Overcast,60,2013-09-05 16:53:00
12:12 PM,78.1,61.0,56,30.24,10.0,East,5.8,-,N/A,,Scattered Clouds,80,2013-09-05 17:12:00
12:53 PM,79.0,61.0,54,30.23,10.0,ESE,6.9,-,N/A,,Clear,120,2013-09-05 17:53:00
1:53 PM,82.0,61.0,49,30.22,10.0,ESE,6.9,-,N/A,,Clear,120,2013-09-05 18:53:00
2:53 PM,82.0,61.0,49,30.20,10.0,ENE,6.9,-,N/A,,Clear,70,2013-09-05 19:53:00
3:53 PM,82.9,61.0,47,30.18,10.0,ESE,5.8,-,N/A,,Clear,110,2013-09-05 20:53:00
4:53 PM,82.9,61.0,47,30.17,10.0,East,4.6,-,N/A,,Clear,80,2013-09-05 21:53:00
5:53 PM,82.0,62.1,51,30.17,10.0,Variable,3.5,-,N/A,,Clear,0,2013-09-05 22:53:00
6:53 PM,78.1,64.0,62,30.17,10.0,East,4.6,-,N/A,,Clear,90,2013-09-05 23:53:00
7:53 PM,73.0,61.0,66,30.18,10.0,East,3.5,-,N/A,,Clear,80,2013-09-06 00:53:00
8:53 PM,68.0,62.1,81,30.19,10.0,NNE,3.5,-,N/A,,Clear,20,2013-09-06 01:53:00
9:53 PM,66.9,62.1,84,30.20,10.0,Calm,Calm,-,N/A,,Clear,0,2013-09-06 02:53:00
10:53 PM,64.9,60.1,84,30.20,10.0,Calm,Calm,-,N/A,,Clear,0,2013-09-06 03:53:00
11:53 PM,66.0,59.0,78,30.20,10.0,Calm,Calm,-,N/A,,Clear,0,2013-09-06 04:53:00